Flag for Uruguay Weather past 2 weeks in Florida, Uruguay

Now
54 °F

Clear.


Feels Like: 52 °F
Forecast: 44 / 73 °F
Wind: 6 mph from North

Location: Carrasco

Current Time: Apr 21, 2015 at 4:32:57 AM

Latest Report: Apr 21, 2015 at 4:00 AM


Visibility: 10 mi

Pressure: 30.04 "Hg

Humidity: 88%

Dew point: 50 °F

Location of FloridaLocation

Historic Weather in Florida — Graph

°F

Florida temperature yesterday

Maximum temperature yesterday: 72 °F (at 11:00 AM)
Minimum temperature yesterday: 59 °F (at 4:00 AM)
Average temperature yesterday: 65 °F

Past Weeks' High & Low Weather Summary

 TemperatureHumidityPressure
High86 °F (Apr 13, 4:00 PM)100% (Apr 9, 7:00 AM)30.18 "Hg (Apr 9, 7:00 AM)
Low50 °F (Apr 7, 6:00 AM)35% (Apr 13, 4:00 PM)29.74 "Hg (Apr 19, 5:00 PM)
Average66 °F68%29.99 "Hg
* Reported Apr 6 3:00 AM — Apr 21 3:00 AM, Florida, Weather by CustomWeather, © 2015

Note: Actual official high and low records may vary slightly from our data, if they occured in-between our weather recording intervals... More about our weather records

Advertising

Florida weather history for previous 24 hours

 ConditionsComfort  
Time TempWeatherWind HumidityBarometerVisibility
3:00 AM
Tue, Apr 21
54 °FClear.7 mph88%30.04 "Hg10 mi
2:00 AM54 °FClear.No wind88%30.04 "Hg10 mi
1:00 AM55 °FClear.3 mph82%30.04 "Hg10 mi
12:00 AM55 °FClear.No wind82%30.04 "Hg10 mi
11:00 PM
Mon, Apr 20
61 °FClear.No wind68%30.01 "Hg10 mi
10:00 PM63 °FClear.5 mph64%30.01 "Hg10 mi
9:00 PM63 °FClear.5 mph64%30.01 "Hg10 mi
8:00 PM63 °FClear.7 mph64%29.98 "Hg10 mi
7:00 PM63 °FClear.7 mph68%29.95 "Hg10 mi
6:00 PM64 °FClear.7 mph64%29.95 "Hg10 mi
5:00 PM66 °FSunny.12 mph64%29.92 "Hg10 mi
4:00 PM68 °FPassing clouds.12 mph60%29.89 "HgN/A
3:00 PM70 °FPassing clouds.12 mph60%29.89 "HgN/A
2:00 PM70 °FSunny.10 mph60%29.89 "Hg10 mi
1:00 PM70 °FSunny.12 mph57%29.89 "Hg10 mi
12:00 PM70 °FSunny.12 mph57%29.89 "Hg10 mi
11:00 AM72 °FSunny.12 mph57%29.92 "Hg10 mi
10:00 AM70 °FSunny.12 mph60%29.89 "Hg10 mi
9:00 AM68 °FSunny.13 mph64%29.86 "Hg10 mi
8:00 AM66 °FSunny.10 mph68%29.86 "Hg10 mi
7:00 AM64 °FPassing clouds.13 mph88%29.83 "HgN/A
6:00 AM66 °FPassing clouds.13 mph94%29.83 "HgN/A
5:00 AM66 °FClear.7 mph88%29.80 "Hg10 mi
4:00 AM59 °FClear.3 mph72%29.80 "Hg10 mi
Weather by CustomWeather, © 2015

See weather overviewHow to use our weather pages